Regional Weather Roundup
Issued by NWS

Home | Current Version | Previous Version | Text Only | Print | Product List | Glossary Off
Versions: 1 2 3 4 5 6 7 8 9 10 11 12 13 14 15 16 17 18 19 20 21 22 23 24 25 26 27 28 29 30 31 32 33 34 35 36 37 38 39 40 41 42 43 44 45 46 47 48 49 50

559
ASUS43 KLOT 270903
RWRIL

ILLINOIS REGIONAL WEATHER ROUNDUP
NATIONAL WEATHER SERVICE CHICAGO/ROMEOVILLE IL
400 AM CDT SAT AUG 27 2016

NOTE: "FAIR" INDICATES FEW OR NO CLOUDS BELOW 12,000 FEET WITH NO
SIGNIFICANT WEATHER AND/OR OBSTRUCTIONS TO VISIBILITY.

* THESE STATIONS ARE NOT UNDER NWS QUALITY CONTROL. THEY ALSO MAY NOT
  REPORT WEATHER SUCH AS PRECIPITATION OR FOG.

ILZ001-002-007-009-015-016-024-271000-
NORTHWEST ILLINOIS

CITY           SKY/WX    TMP DP  RH WIND       PRES   REMARKS
MOLINE         LGT RAIN  71  68  90 SE9       30.01F
STERLING*      LGT RAIN  68  67  96 E9        30.05F FOG
SAVANNA*       CLOUDY    67  66  96 E9        30.03F
$$

ILZ003-004-008-010-011-017-018-271000-
NORTH CENTRAL ILLINOIS

CITY           SKY/WX    TMP DP  RH WIND       PRES   REMARKS
ROCKFORD       CLOUDY    66  62  87 E6        30.08S
FREEPORT*      CLOUDY    62  61  96 E9        30.07F
ROCHELLE*      RAIN      65  64  96 S5        30.08F
$$

ILZ005-006-012>014-019>023-271000-
NORTHEAST ILLINOIS

CITY           SKY/WX    TMP DP  RH WIND       PRES   REMARKS
CHICAGO-OHARE  LGT RAIN  68  64  87 NE5       30.07F
CHICAGO-MIDWAY TSTM      71  64  78 E3        30.07S FOG
AURORA         LGT RAIN  68  66  93 E5        30.06F
LANSING*       CLOUDY    69  68  96 CALM      30.06F
JOLIET*        CLOUDY    71  69  92 CALM      30.07R
WAUKEGAN       CLOUDY    68  65  90 E6        30.06F
DUPAGE AIRPORT LGT RAIN  67  64  90 E6        30.07S
KANKAKEE*      CLOUDY    69  68  94 NW8       30.06S
WHEELING       LGT RAIN  68  64  87 CALM      30.08F
MORRIS*        CLOUDY    69  68  96 CALM      30.06S
ROMEOVILLE*    CLOUDY    69  69 100 E5        30.06F
NORTHERLY ISL    N/A     71  65  81 E7          N/A
$$

LMZ740>746-271000-
SOUTHERN LAKE MICHIGAN

STATION/POSITION SKY/WX   TEMP    WIND        PRES    VSBY  WAVE
                          AIR SEA DIR/SP/G                  HT/PER
                          (F)     (DEG/KT/KT) (MB)    (MI)  (FT/S)
SOUTHERN BUOY              71 74   90/ 14/ 16 1018.9          2/ 3
WILMETTE HARBOR            71 70  120/ 10/ 14   N/A           2/ 3
HARRISON CRIB              73      80/ 14/ 15   N/A
BURNHAM HARBOR             70     100/  3/  9   N/A
CALUMET HARBOR             71      70/  9/ 10 1017.8F
BURNS HARBOR               71      80/  8/  9 1018.6F
MICHIGAN CITY              69      50/  7/  8   N/A
MICHIGAN CITY 6N           72 74   80/ 10/ 12   N/A           2/ 4
ST. JOSEPH                 70 76   70/  8/ 12 1018.9F         1/ 3
$$

ILZ025>027-034>036-040-047-049-050-058-095>099-271000-
WEST-CENTRAL ILLINOIS

CITY           SKY/WX    TMP DP  RH WIND       PRES   REMARKS
QUINCY         CLOUDY    72  72 100 S6        30.01F
GALESBURG*     TSTM      70  69  98 E3        30.04S
MACOMB*        MOCLDY    70  69  98 CALM      30.03F
JACKSONVILLE*  CLOUDY    74  73  94 S6        30.02S
PITTSFIELD*    LGT RAIN  73  72  97 W6        30.04S
$$

ILZ028>032-037-038-041>044-048-051>054-059>061-271000-
CENTRAL ILLINOIS

CITY           SKY/WX    TMP DP  RH WIND       PRES   REMARKS
PONTIAC        CLOUDY    71  71 100 CALM      30.05F
BLOOMINGTON    CLOUDY    71  69  93 SE10      30.06S
DECATUR        CLOUDY    74  71  91 S7        30.05F
PEORIA         TSTM      71  71 100 CALM      30.05S FOG
LACON*         TSTM      69  68  97 N3        30.05F
LINCOLN*       RAIN      73  72  96 S10       30.02F
SPRINGFIELD    CLOUDY    75  72  90 S6        30.03F
TAYLORVILLE    CLOUDY    72  71  98 S5        30.05R
$$

ILZ033-039-045-046-055>057-062-063-271000-
EAST-CENTRAL ILLINOIS

CITY           SKY/WX    TMP DP  RH WIND       PRES   REMARKS
CHAMPAIGN      LGT RAIN  71  69  93 S7        30.05F
RANTOUL*       TSTM      72  70  92 SW9       30.06F
MATTOON        CLOUDY    71  69  93 S3        30.05F
PARIS*         CLOUDY    72  72 100 CALM      30.07S
$$

ILZ079-100>102-271000-
SOUTHWEST ILLINOIS

CITY           SKY/WX    TMP DP  RH WIND       PRES   REMARKS
ALTON          CLOUDY    73  70  92 S3        30.04S
BELLEVILLE     CLOUDY    73  73  99 SW3       30.03F
CAHOKIA*       CLOUDY    73  70  90 SE3       30.04S
SPARTA*        CLOUDY    71  69  95 CALM      30.05S
$$

ILZ064>066-069>071-074>076-080>082-084>086-088>090-092>094-271000-
SOUTH-CENTRAL ILLINOIS

CITY           SKY/WX    TMP DP  RH WIND       PRES   REMARKS
CARBONDALE     CLEAR     69  67  93 W3        30.03F
EFFINGHAM*     CLOUDY    73  73 100 CALM      30.05F
MARION         PTCLDY    70  70 100 CALM      30.04F
MT. VERNON     CLOUDY    70  64  83 W3        30.04F
CENTRALIA*     CLOUDY    69  69  99 CALM      30.04F
SALEM*         PTCLDY    72  68  87 CALM      30.04F
METROPOLIS*    MOCLDY    72  71  98 CALM      30.03S
$$

ILZ067-068-072-073-078-083-087-091-271000-
SOUTHEAST ILLINOIS

CITY           SKY/WX    TMP DP  RH WIND       PRES   REMARKS
LAWRENCEVILLE  MOCLDY    73  72  96 CALM      30.05F
FLORA*         CLOUDY    73  71  93 N5        30.03F
FAIRFIELD*     CLOUDY    71  70  98 CALM      30.01S
HARRISBURG*    PTCLDY    71  71 100 CALM      30.04R
ROBINSON*      CLOUDY    72  71  97 CALM      30.06F
CARMI*         PTCLDY    71  71 100 CALM      30.03R
$$

ABBREVIATIONS USED IN REMARKS
   TC - TEMPERATURE IN CELSIUS
  WCI - WIND CHILL INDEX
   HX - HEAT INDEX
  VSB - VISIBILITY
$$





USA.gov is the U.S. government's official web portal to all federal, state and local government web resources and services.